User: anonymous   Login
Location: Homewood
(41.1836°S, 175.9581°E)
Time: 19:57:21
(UTC+00:00)
Language:

Cosmos 1470 - Orbit

View from above orbital plane
View from above orbital plane
View from above satellite
View from above satellite

Ground track
Ground track

The orbit data is extracted from the following two-line orbital elements,

1 14147U 83061A   24165.63044913  .00007970  00000-0  34002-3 0  9998
2 14147  82.4781  42.5623 0014500  94.0709 266.2185 15.22663653990591
Epoch (UTC): 13 June 2024 15:07:50
Eccentricity: 0.0014500
inclination: 82.4781°
perigee height: 488 km
apogee height: 508 km
right ascension of ascending node: 42.5623°
argument of perigee: 94.0709°
revolutions per day: 15.22663653
mean anomaly at epoch: 266.2185°
orbit number at epoch: 99059

The dashed part of the orbit path shows where the satellite is in the earth's shadow,  

DLR